Location: Gro�sch�nbrunn
(49.5760°N, 11.8868°E)
Time: 12:49:22
(UTC+00:00)

NOSS 3-2 (C) - Pass Details

Date: 18 September 2020
Orbit: 795 x 1418 km, 63.4° (Epoch: 02 October)

Event Time Altitude Azimuth Distance (km) Brightness Sun altitude
Rises 18:43:35 0° 316° (NW) 3,863 7.9 -14.3°
Reaches altitude 10° 18:46:08 10° 319° (NW) 2,991 7.0 -14.7°
Maximum altitude 18:53:21 63° 41° (NE) 1,372 4.1 -15.8°
Enters shadow 18:58:45 23° 116° (ESE) 2,491 5.0 -16.6°
